Regional Weather Roundup
Issued by NWS

Home | Current Version | Previous Version | Text Only | Print | Product List | Glossary Off
Versions: 1 2 3 4 5 6 7 8 9 10 11 12 13 14 15 16 17 18 19 20 21 22 23 24 25 26 27 28 29 30 31 32 33 34 35 36 37 38 39 40 41 42 43 44 45 46 47 48 49 50

000
ASUS43 KMKX 270111
RWRWI

WISCONSIN REGIONAL WEATHER ROUNDUP
NATIONAL WEATHER SERVICE MILWAUKEE/SULLIVAN WI
800 PM CDT TUE JUL 26 2016

NOTE: "FAIR" INDICATES FEW OR NO CLOUDS BELOW 12,000 FEET WITH NO
SIGNIFICANT WEATHER AND/OR OBSTRUCTIONS TO VISIBILITY.

WIZ001-002-006>008-014>016-023>028-270200-
NORTHWEST WISCONSIN

CITY           SKY/WX    TMP DP  RH WIND       PRES   REMARKS
SUPERIOR ARPT  CLOUDY    78  70  76 W7        29.94R HX  80
ASHLAND        CLOUDY    80  69  69 W6        29.94R HX  83
HAYWARD        CLEAR     79  69  71 CALM      29.97R HX  81
SIREN          CLOUDY    79  68  69 CALM      29.96S HX  81
CUMBERLAND     CLEAR     77  66  69 W3        29.97S
RICE LAKE      CLEAR     79  67  66 SW5       29.98S HX  81
CHETEK         CLEAR     80  69  70 MISG      29.96S HX  82
LADYSMITH      CLEAR     79  67  65 SW5       29.98S HX  81
EAU CLAIRE     CLEAR     82  68  62 SW5       29.96S HX  85
MENOMONIE      CLEAR     82  66  57 SW3       29.97S HX  85
NEW RICHMOND   PTCLDY    79  64  60 SW6       29.97S HX  81
OSCEOLA        CLOUDY    80  68  65 CALM      29.99S HX  83
$$

WIZ003>005-009-010-017-018-270200-
NORTH CENTRAL WISCONSIN

CITY           SKY/WX    TMP DP  RH WIND       PRES   REMARKS
MANITOWISH WTR TSTM      69  69 100 E5        29.99R
ARBOR VITAE    CLOUDY    78  65  63 N10       30.00R HX  80
WOODRUFF       CLOUDY    78  65  63 N10       30.00R HX  80
RHINELANDER    CLEAR     79  65  62 W7        29.99R HX  81
EAGLE RIVER    CLOUDY    71  58  64 NW7G24    29.99R
LAND O LAKES   CLOUDY    66  64  91 CALM      30.01R
PHILLIPS       CLOUDY    79  67  66 SW3       29.97S HX  82
TOMAHAWK       CLEAR     79  63  57 SW3       29.98S HX  80
MEDFORD        CLEAR     77  67  69 SW6       29.99S
MERRILL        CLEAR     81  67  61 W7        29.98F HX  83
$$

WIZ029-030-035-036-043>047-270200-
CENTRAL WISCONSIN

CITY           SKY/WX    TMP DP  RH WIND       PRES   REMARKS
WAUSAU         CLEAR     80  66  62 SW8       29.96F HX  82
MOSINEE        CLEAR     79  66  65 SW7       30.00S HX  81
MARSHFIELD     CLEAR     79  67  66 SW7       29.99S HX  81
STEVENS POINT  CLEAR     81  65  59 W7        29.99S HX  83
WAUPACA        CLEAR     83  67  58 SW5       29.97F HX  86
WAUTOMA        CLEAR     82  69  64 SW5       29.99S HX  85
WISC RAPIDS    CLEAR     82  65  56 SW6       29.99F HX  84
CAMP DOUGLAS   PTCLDY    81  68  65 SW6       29.99F HX  83
$$

WIZ011>013-019>022-031-037>040-048>050-270200-
NORTHEAST WISCONSIN

CITY           SKY/WX    TMP DP  RH WIND       PRES   REMARKS
ANTIGO         CLEAR     78  66  67 CALM      29.99S
SHAWANO        CLEAR     83  66  55 W3        29.96S HX  85
OCONTO         CLEAR     80  70  71 SW3       29.93S HX  83
STURGEON BAY   CLEAR     81  68  64 SW9       29.95F HX  84
GREEN BAY      CLEAR     80  70  71 SW6       29.96S HX  83
MANITOWOC      CLEAR     76  63  64 CALM      29.98R
APPLETON       PTCLDY    81  64  57 SW7       29.97R HX  82
CLINTONVILLE   CLEAR     81  66  61 SW5       29.95F HX  83
OSHKOSH        CLEAR     80  67  64 SW5       29.98R HX  82
$$

WIZ032>034-041-042-053>061-270200-
SOUTHWEST WISCONSIN

CITY           SKY/WX    TMP DP  RH WIND       PRES   REMARKS
LA CROSSE      CLEAR     84  68  58 S8        29.97F HX  87
SPARTA         CLEAR     80  68  66 SW3       29.99F HX  83
VIROQUA        CLEAR     79  69  70 CALM      30.03S HX  81
BOSCOBEL       CLEAR     82  69  64 CALM      30.01S HX  85
PRAIRIE DU CHI CLEAR     82  64  55 CALM      30.00F HX  83
PLATTEVILLE    CLEAR     79  70  74 CALM      30.04S HX  81
$$

WIZ056-057-062-063-064-067-068-270200-
SOUTH CENTRAL WISCONSIN

CITY           SKY/WX    TMP DP  RH WIND       PRES   REMARKS
REEDSBURG      CLEAR     80  69  69 SW5       30.00S HX  83
BARABOO/DELLS  CLEAR     78  67  66 SW5       30.00F HX  80
LONE ROCK      CLEAR     79  70  74 S3        30.01S HX  82
MINERAL POINT  CLEAR     81  66  61 CALM      30.04S HX  83
MADISON        PTCLDY    81  65  58 SW3       30.01S HX  83
MIDDLETON      CLEAR     81  65  59 SW5       30.02F HX  82
WATERTOWN      CLEAR     80  67  63 CALM      30.01S HX  82
MONROE         CLEAR     79  64  61 S3        30.03S HX  81
JANESVILLE     CLEAR     82  64  54 CALM      30.01S HX  84
$$

WIZ051-052-058>065-066-070>072-270200-
SOUTHEAST WISCONSIN

CITY           SKY/WX    TMP DP  RH WIND       PRES   REMARKS
MILWAUKEE      PTCLDY    80  61  52 S8        30.00F HX  81
WAUKESHA       CLEAR     79  61  53 CALM      30.02F HX  80
MILWAUKEE/TIMM CLEAR     82  55  39 SE6       30.01S HX  82
RACINE         CLEAR     79  63  57 S7        30.02F HX  80
BURLINGTON     CLEAR     78  65  64 CALM      30.01F HX  80
KENOSHA        CLEAR     79  63  57 SE6       30.02S HX  80
FOND DU LAC    CLEAR     80  67  64 CALM      29.99S HX  82
SHEBOYGAN      CLEAR     78  64  61 S8        29.98S HX  80
WEST BEND      CLEAR     79  63  57 SW3       30.00S HX  80
JUNEAU         CLEAR     77  68  73 S7        30.01F
$$

LSZ147-162-270200-
LAKE SUPERIOR

STATION/POSITION TIME  TEMP    WIND        PRES    WAVE
                       AIR SEA DIR/SP/G            HT/PER
                 (UTC) (F)     (DEG/KT/KT) (MB)    (FT/S)
W MID LAKE BUOY  0050   69 65  270/  6/  6 1012.2R   0
DEVILS ISLAND    0100   70     230/ 10/ 12 1012.6F
SAXON HARBOR     0040   81      CALM  /  1 1013.2F
$$

LMZ867-665-643>646-270200-
LAKE MICHIGAN

STATION/POSITION TIME  TEMP    WIND        PRES    WAVE
                       AIR SEA DIR/SP/G            HT/PER
                 (UTC) (F)     (DEG/KT/KT) (MB)    (FT/S)
CHAMBERS ISLAND  0000   81     190/  5/ 14 1012.9F
S GREEN BAY BUOY 0000   80 76  210/ 10/ 12   N/A
N MID LAKE BUOY  0050   73 70  210/ 17/ 21 1012.1F   3/ 4
NORTHPORT PIER   0000   82     160/  3/  6 1013.2R
SISTER BAY       2321   84     240/ 15/ 18   N/A
ALGOMA LAKESHORE 0043          230/  8/ 10   N/A
KEWAUNEE LAKESHO 0018   65                   N/A
SHEBOYGAN LAKESH 0100   76     190/ 13/ 13 1014.9F
PORT WASHINGTON  0000   74     200/  5/  8 1016.3F
ATWATER BUOY     0000   69 62  190/  6/  6 1017.8R
MILWAUKEE LAKESH 0010   76     150/ 10/ 10   N/A
S MID LAKE BUOY  0050   76 77  170/  2/  2 1015.6R   0
KENOSHA   LAKESH 0100   76     180/  6/  7 1015.6F
$$

TC  - TEMPERATURE IN CELSIUS
VSB - VISIBILITY IN STATUTE MILES
WCI - WIND CHILL INDEX
HX  - HEAT INDEX




USA.gov is the U.S. government's official web portal to all federal, state and local government web resources and services.